{"data":{"norad_id":60127,"epoch":"2026-09-21T07:08:43.742400Z","epoch_age_seconds":112598,"freshness":"FRESH","line1":"1 60127U 24118Q   26264.29772850  .00000092  00000+0  14725-4 0  9995","line2":"2 60127  53.1609 196.8089 0001448  88.1702 271.9465 15.31716081125663","mean_motion":15.31716081,"eccentricity":0.0001448,"inclination_deg":53.1609,"raan_deg":196.8089,"arg_perigee_deg":88.1702,"mean_anomaly_deg":271.9465,"bstar":1.4725e-5,"rev_number":12566,"period_min":94.012200946528,"perigee_km":469.70034857308,"apogee_km":471.68376946857,"semimajor_km":6848.8290590208,"source":"CELESTRAK","updated_at":"2026-09-22T09:00:49.157671Z"}}